Regional Weather Roundup
Issued by NWS

Home | Current Version | Previous Version | Graphics & Text | Print | Product List | Glossary On
Versions: 1 2 3 4 5 6 7 8 9 10 11 12 13 14 15 16 17 18 19 20 21 22 23 24 25 26 27 28 29 30 31 32 33 34 35 36 37 38 39 40 41 42 43 44 45 46 47 48 49 50
000
ASUS45 KTFX 172104
RWRMT
MONTANA HOURLY WEATHER ROUNDUP
NATIONAL WEATHER SERVICE GREAT FALLS MT
304 PM MDT THU APR 17 2014

NOTE: "FAIR" INDICATES FEW OR NO CLOUDS BELOW 12000 FEET WITH NO
SIGNIFICANT WEATHER AND/OR OBSTRUCTIONS TO VISIBILITY.

* THESE STATIONS ARE NOT UNDER NWS QUALITY CONTROL. THEY DO NOT
   REPORT WEATHER SUCH AS PRECIPITATION OR FOG.

MTZ001>007-043-172200-
WEST OF THE DIVIDE
CITY           SKY/WX    TMP DP  RH WIND       PRES   REMARKS
KALISPELL      LGT RAIN  48  43  83 S12       29.80F
MISSOULA       CLOUDY    55  36  49 E7        29.83F
BUTTE          CLOUDY    54  27  35 SW10G23   29.84F
MULLAN PASS    LGT SNOW  34  34 100 VRB3      29.81S VSB M1/4
* ESSEX        N/A       45  38  77 S1         N/A
* LINCOLN      N/A       53  31  43 W6G14      N/A
* LOOKOUT PASS N/A       41  38  89 S3G8       N/A
* POLSON       N/A       49  41  74 SW2        N/A
* RONAN APT    CLOUDY    54  37  53 N13G21     N/A
* SEELEY LAKE  N/A       49  36  61 NW3        N/A
* THOMP F APT  CLOUDY    49  18  29 S9G20      N/A
$$

MTZ008-052>055-172200-
SOUTHWEST MONTANA
CITY           SKY/WX    TMP DP  RH WIND       PRES   REMARKS
BOZEMAN        CLOUDY    59  25  27 S10       29.83F
DILLON         CLOUDY    61  21  21 S12G26    29.83F
W YELLOWSTONE  N/A       53  23  31 SW6G16     N/A
* THREE FORKS  CLOUDY    61  28  29 SW5        N/A
* BOULDER HILL N/A       51  24  35 S19G24     N/A
* MONIDA PASS  N/A       45  15  30 S19G27     N/A
* RAYNOLDS PAS N/A       44  24  45 SE14G23    N/A
* WHITEHALL    N/A       61  25  25 SW13G26    N/A
* WISE RIVER   N/A       52  26  36 NW9G16     N/A
$$

MTZ009>010-012-014-046-048-049-054-172200-
EAST SLOPES AND CENTRAL MONTANA
CITY           SKY/WX    TMP DP  RH WIND       PRES   REMARKS
CUT BANK       CLOUDY    48  34  59 S12       29.76F
GREAT FALLS    CLOUDY    55  32  42 S7        29.79F
HELENA         CLOUDY    61  27  27 N8        29.79F
MALMSTROM AFB  CLOUDY    55  28  35 SE9       29.77F
* CONRAD       CLOUDY    55  36  49 E9         N/A
* DEARBORN     N/A       58  28  32 S14G22     N/A
* EAST GLACIER N/A       43  35  73 W17G27     N/A
* MONARCH      N/A       44  24  45 SW12G18    N/A
* PENDROY      N/A       53  26  35 SE4G14     N/A
* ROGERS PASS  N/A       47  29  50 SE14G19    N/A
* SAINT MARY   N/A       47  34  61 S6G16      N/A
* SWEET GRASS  N/A       47  41  80 S17        N/A
$$

MTZ011-013-016-021-035-040-045-047-050-051-172200-
NORTH CENTRAL MONTANA
CITY           SKY/WX    TMP DP  RH WIND       PRES   REMARKS
HAVRE          CLOUDY    57  36  46 SW14G24   29.79F
LEWISTOWN      CLOUDY    52  34  50 W10       29.85S
* CHESTER      N/A       52  33  48 W7         N/A
* DENTON       N/A       54  27  35 W11G16     N/A
* GEYSER       N/A       49  30  48 SW11G19    N/A
* JUDITH GAP   N/A       52  25  35 SW16       N/A
$$

MTZ017>020-022>027-061-062-172200-
NORTHEAST MONTANA
CITY           SKY/WX    TMP DP  RH WIND       PRES   REMARKS
GLASGOW        PTSUNNY   55  30  39 SE17      29.90F
GLENDIVE       PTSUNNY   52  34  50 SE14G23   29.98F
JORDAN         PTCLDY    57  30  36 S12       29.87F
SIDNEY         PTSUNNY   46  30  54 SE16G23   30.05F
WOLF POINT     CLOUDY    55  28  35 SE15      29.96F
* BEAVER HILL  N/A       46  31  56 SE24G30    N/A
* CIRCLE       N/A       54  34  47 SE7G15     N/A
* LINDSAY DVD  N/A       49  31  50 SE13       N/A
* NAVAJO       N/A       47  24  40 SE17G29    N/A
* SACO         N/A       56  30  37 E14G22     N/A
$$

MTZ028>042-056>058-172200-
SOUTHCENTRAL AND SOUTHEAST MONTANA
CITY           SKY/WX    TMP DP  RH WIND       PRES   REMARKS
BAKER          CLOUDY    54  34  47 SE22G30   30.00F
BILLINGS       PTSUNNY   61  27  27 S8G22     29.86F
LIVINGSTON     PTSUNNY   64  23  21 SW26G32   29.82F
MILES CITY     PTSUNNY   57  30  36 S8        29.90F
* LAUREL APT   SUNNY     61  27  27 N/A        N/A
* ROUNDUP APT  SUNNY     57  28  33 S9         N/A
* HYSHAM       N/A       59  25  27 W5         N/A
* LAME DEER    N/A       53  28  38 S4G10      N/A
* REED POINT   N/A       61  28  29 E8G15      N/A
* ROSCOE HILL  N/A       55  14  20 E12G17     N/A
$$

REGIONAL REPORTS...DAKOTAS
CITY           SKY/WX    TMP DP  RH WIND       PRES   REMARKS
WILLISTON      PTSUNNY   45  25  45 SE20G30   30.08F
DICKINSON      CLOUDY    37  27  67 SE20G25   30.09F WCI  27
CROSBY         PTCLDY    41  25  53 SE22G29   30.10F
TIOGA          CLOUDY    41  23  49 SE17G28   30.14F
WATFORD CITY   PTSUNNY   41  25  53 S20G28    30.07F
BISMARCK       CLOUDY    45  19  35 SE17      30.19F
GRAND FORKS    PTCLDY    41   7  24 N7        30.31F
FARGO          SUNNY     45  16  31 NW7       30.29F
BUFFALO SD     PTSUNNY   48  30  50 SE21G26   29.96F
RAPID CITY     PTCLDY    50  34  54 S24G31    30.03F
$$

REGIONAL REPORTS...WYOMING/IDAHO/WASHINGTON
CITY           SKY/WX    TMP DP  RH WIND       PRES   REMARKS
GILLETTE       PTSUNNY   57  27  32 SW10G21   29.93F
SHERIDAN       SUNNY     57  28  33 VRB7      29.90F
CODY           PTSUNNY   57  25  29 CALM      29.87F
YELLOWSTONE LA PTCLDY    45  18  34 VRB6G20   30.01S
SALMON         CLOUDY    63  25  24 S12       29.80F
MULLAN PASS    LGT SNOW  34  34 100 VRB3      29.81S VSB M1/4
SPOKANE        LGT RAIN  48  45  89 SW9       29.80F

$$




USA.gov is the U.S. government's official web portal to all federal, state and local government web resources and services.